Regional Weather Roundup
Issued by NWS

Home | Current Version | Previous Version | Graphics & Text | Print | Product List | Glossary On
Versions: 1 2 3 4 5 6 7 8 9 10 11 12 13 14 15 16 17 18 19 20 21 22 23 24 25 26 27 28 29 30 31 32 33 34 35 36 37 38 39 40 41 42 43 44 45 46 47 48 49 50
833
ASUS45 KPSR 171910
RWRAZ

ARIZONA HOURLY REGIONAL WEATHER ROUNDUP
NATIONAL WEATHER SERVICE PHOENIX AZ
1200 PM MST SUN DEC 17 2017

NOTE: FAIR INDICATES FEW OR NO CLOUDS BELOW 12,000 FEET WITH NO
SIGNIFICANT WEATHER AND/OR OBSTRUCTIONS TO VISIBILITY.

AZZ001>003-036-172000-
NORTHWEST ARIZONA

CITY           SKY/WX    TMP DP  RH WIND       PRES   REMARKS
BULLHEAD CITY  SUNNY     59  21  23 N32G40    29.99F
KINGMAN        SUNNY     49  20  31 NE12      30.02F
$$

AZZ004>008-015-016-018-172000-
NORTH CENTRAL ARIZONA

CITY           SKY/WX    TMP DP  RH WIND       PRES   REMARKS
GRAND CANYON   SUNNY     44   8  23 NE13      30.03F
WILLIAMS       SUNNY     45  10  24 VRB3      29.97F
PRESCOTT       SUNNY     48  22  35 N7        29.97F
FLAGSTAFF      SUNNY     42  11  28 E12       29.99F
PAYSON         MOSUNNY   45  36  70 VRB6G13   29.96F
PAGE           SUNNY     42  19  39 E3        30.06F
$$

AZZ009>014-017-172000-
NORTHEAST ARIZONA

CITY           SKY/WX    TMP DP  RH WIND       PRES   REMARKS
WINSLOW        PTSUNNY   44   9  23 N6        30.02F
SAINT JOHNS    MOSUNNY   50  14  23 E10       29.97F
WINDOW ROCK    SUNNY     49  10  20 VRB3      30.00F
SHOW LOW       CLOUDY    45  19  36 N8        29.99F
$$

AZZ540-542>544-546-548-172000-
GREATER PHOENIX AREA

CITY           SKY/WX    TMP DP  RH WIND       PRES   REMARKS
PHOENIX        PTSUNNY   57  46  66 E9        29.91F
BUCKEYE        MOSUNNY   59  59 100 E14       29.92F
GLENDALE       PTSUNNY   57  45  62 E10       29.94F
LUKE AFB       MOSUNNY   60  42  50 E9        29.91F
DEER VALLEY    MOSUNNY   58  42  55 SE10      29.91F
SCOTTSDALE     MOSUNNY   57  41  55 SE8G18    29.93F
MESA-FALCON    PTSUNNY   57  45  62 SE7       29.93F
MESA-GATEWAY   PTSUNNY   55  19  24 NE5       29.93F
CHANDLER       MOSUNNY   57  46  67 NE9       29.93F
$$

AZZ539-553-172000-
SOUTHWEST MARICOPA COUNTY AND PINAL COUNTY

CITY           SKY/WX    TMP DP  RH WIND       PRES   REMARKS
CASA GRANDE    NOT AVBL
GILA BEND      LGT RAIN  61  45  55 E8        29.91F
$$

AZZ503-504-507>509-172000-
SOUTHEAST ARIZONA

CITY           SKY/WX    TMP DP  RH WIND       PRES   REMARKS
TUCSON         CLOUDY    53  45  74 E10       29.94F
DAVIS-MONTHAN  CLOUDY    51  48  89 SE14      29.91F
RYAN FIELD     PTSUNNY   52  46  82 E10       29.95F
NOGALES        LGT RAIN  48  41  76 MISG      29.92S
SIERRA VISTA   MOSUNNY   46  39  78 E5        29.95F
DOUGLAS        CLOUDY    42  42 100 SE14      29.99F
SAFFORD        CLOUDY    48  39  71 E12       29.98R
$$

AZZ532-172000-
SOUTHWEST ARIZONA

CITY           SKY/WX    TMP DP  RH WIND       PRES   REMARKS
YUMA           PTSUNNY   64  27  24 N12       29.94S
$$

CAZ041-043-047-048-061-525>527-560>570-172000-
SOUTHERN CALIFORNIA

CITY           SKY/WX    TMP DP  RH WIND       PRES   REMARKS
DOWNTOWN L.A.  SUNNY     68  18  14 CALM      29.91F
L.A. AIRPORT   MOSUNNY   69  18  14 CALM      29.92F
SAN DIEGO      SUNNY     65  47  52 CALM      29.92S
BURBANK        SUNNY     66  19  16 N8        29.92F
ONTARIO        MOSUNNY   66  18  15 NE20G30   29.92F
RIVERSIDE      SUNNY     61  18  18 N18G30    29.95F
PALM SPRINGS   SUNNY     66  18  15 N16       30.03F
EL CENTRO NAS  SUNNY     67  26  21 N15       29.98S
IMPERIAL       SUNNY     67  24  19 N9        29.96S
BLYTHE         SUNNY     64  23  21 N22       29.97F
NEEDLES        SUNNY     61  22  22 N31G39    30.00F
$$

NVZ020-UTZ003-172000-
SOUTHERN NEVADA-UTAH

CITY           SKY/WX    TMP DP  RH WIND       PRES   REMARKS
LAS VEGAS      SUNNY     52  17  25 NW16G25   30.09F
SALT LAKE CITY MOSUNNY   34  25  69 CALM      30.21F
$$

NMZ009-TXZ055-172000-
NEW MEXICO-WEST TEXAS

CITY           SKY/WX    TMP DP  RH WIND       PRES   REMARKS
ALBUQUERQUE    PTSUNNY   46  13  26 SW7       30.02F
EL PASO        CLOUDY    52  35  52 CALM      29.99F
$$


........................KEY........................
SKY/WX - SKY CONDITION/WEATHER
TMP    - TEMPERATURE IN FAHRENHEIT
DP     - DEW POINT IN FAHRENHEIT
RH     - RELATIVE HUMIDITY IN PERCENT
WIND   - DIRECTION AND SPEED IN MILES PER HOUR (MPH)
VRB    - VARIABLE WIND DIRECTION
PRES   - MEAN SEA LEVEL PRESSURE IN INCHES OF MERCURY
         F - FALLING PRESSURE   R - RISING PRESSURE
         S - STEADY PRESSURE
VSB    - VISIBILITY IN MILES
HX     - HEAT INDEX IN FAHRENHEIT
WCI    - WIND CHILL INDEX IN FAHRENHEIT
TC     - TEMPERATURE IN CELSIUS WHICH IS ALSO KNOWN AS
         TEMPERATURE IN CENTIGRADE
AFB    - AIR FORCE BASE
         LUKE AFB IS LUKE AIR FORCE BASE
         DAVIS-MONTHAN IS DAVIS-MONTHAN AIR FORCE BASE
NAS    - NAVAL AIR STATION
         EL CENTRO NAS IS EL CENTRO NAVAL AIR STATION
N/A    - NOT AVAILABLE





USA.gov is the U.S. government's official web portal to all federal, state and local government web resources and services.